Estación de San Fernando
Ultimos registro cada 15 minutos 30
| N° | Estación | Fecha / Hora | Temperatura | Humedad | Lluvia | Velocidad | Dirección | Radiación | Presion |
| 30 | San Fernando | 09-05-2026 07:15 | 8,1 | 89 | 0 | 0,4 | 209 | 0 | 1016,8 |
| 29 | San Fernando | 09-05-2026 07:00 | 8,2 | 90 | 0 | 0 | 220 | 0 | 1017 |
| 28 | San Fernando | 09-05-2026 06:45 | 8,3 | 90 | 0 | 1,3 | 232 | 0 | 1017 |
| 27 | San Fernando | 09-05-2026 06:30 | 8,6 | 90 | 0 | 0,4 | 299 | 0 | 1017,1 |
| 26 | San Fernando | 09-05-2026 06:15 | 8,6 | 90 | 0 | 0,4 | 299 | 0 | 1017,1 |
| 25 | San Fernando | 09-05-2026 06:00 | 8,7 | 90 | 0 | 0,4 | 222 | 0 | 1017,1 |
| 24 | San Fernando | 09-05-2026 05:45 | 8,8 | 90 | 0 | 1,3 | 192 | 0 | 1017 |
| 23 | San Fernando | 09-05-2026 05:30 | 8,8 | 91 | 0 | 0 | 243 | 0 | 1016,9 |
| 22 | San Fernando | 09-05-2026 05:15 | 8,8 | 92 | 0 | 0,4 | 296 | 0 | 1016,9 |
| 21 | San Fernando | 09-05-2026 05:00 | 8,9 | 92 | 0 | 0,4 | 255 | 0 | 1016,9 |
| 20 | San Fernando | 09-05-2026 04:45 | 9 | 92 | 0 | 0,9 | 255 | 0 | 1017 |
| 19 | San Fernando | 09-05-2026 04:30 | 9 | 92 | 0 | 0,4 | 220 | 0 | 1017,2 |
| 18 | San Fernando | 09-05-2026 04:15 | 9,1 | 92 | 0 | 0 | 239 | 0 | 1017,2 |
| 17 | San Fernando | 09-05-2026 04:00 | 9,3 | 91 | 0 | 1,3 | 256 | 0 | 1017,3 |
| 16 | San Fernando | 09-05-2026 03:45 | 9,3 | 91 | 0 | 0,9 | 199 | 0 | 1017,4 |
| 15 | San Fernando | 09-05-2026 03:30 | 9,4 | 91 | 0 | 1,3 | 204 | 0 | 1017,5 |
| 14 | San Fernando | 09-05-2026 03:15 | 9,5 | 91 | 0 | 1,3 | 253 | 0 | 1017,7 |
| 13 | San Fernando | 09-05-2026 03:00 | 9,6 | 91 | 0 | 0,4 | 204 | 0 | 1017,6 |
| 12 | San Fernando | 09-05-2026 02:45 | 9,6 | 91 | 0 | 0,9 | 239 | 0 | 1017,6 |
| 11 | San Fernando | 09-05-2026 02:30 | 9,6 | 91 | 0 | 1,8 | 199 | 0 | 1017,8 |
| 10 | San Fernando | 09-05-2026 02:15 | 9,7 | 91 | 0 | 1,8 | 243 | 0 | 1018 |
| 9 | San Fernando | 09-05-2026 02:00 | 9,7 | 91 | 0 | 0,9 | 242 | 0 | 1018,2 |
| 8 | San Fernando | 09-05-2026 01:45 | 9,7 | 91 | 0 | 1,3 | 239 | 0 | 1018,2 |
| 7 | San Fernando | 09-05-2026 01:30 | 9,6 | 92 | 0 | 0,9 | 283 | 0 | 1018,1 |
| 6 | San Fernando | 09-05-2026 01:15 | 9,7 | 91 | 0 | 1,3 | 269 | 0 | 1018,1 |
| 5 | San Fernando | 09-05-2026 01:00 | 9,7 | 92 | 0 | 0,9 | 195 | 0 | 1018 |
| 4 | San Fernando | 09-05-2026 00:45 | 9,7 | 92 | 0 | 0,9 | 209 | 0 | 1018,1 |
| 3 | San Fernando | 09-05-2026 00:30 | 9,7 | 92 | 0 | 0,9 | 204 | 0 | 1018 |
| 2 | San Fernando | 09-05-2026 00:15 | 9,8 | 91 | 0 | 1,3 | 192 | 0 | 1017,9 |
| 1 | San Fernando | 09-05-2026 00:00 | 9,9 | 91 | 0 | 2,2 | 214 | 0 | 1018,1 |